Location: Aufkirchen
(47.9603°N, 11.3653°E)
Time: 16:36:30
(UTC+01:00)

Transit 4A - Pass Details

Date: 28 November 2020
Orbit: 864 x 980 km, 66.8° (Epoch: 26 January)

Event Time Altitude Azimuth Distance (km) Brightness Sun altitude
Rises 06:56:41 0° 164° (SSE) 3,613 11.6 -7.2°
Reaches altitude 10° 06:59:54 10° 148° (SSE) 2,689 11.3 -6.7°
Maximum altitude 07:04:14 20° 104° (ESE) 2,088 11.1 -6.0°
Drops below altitude 10° 07:08:38 10° 60° (ENE) 2,733 10.9 -5.4°
Sets 07:11:55 0° 45° (NE) 3,690 11.3 -4.9°
